Regional Weather Roundup
Issued by NWS Sioux Falls, SD

Home | Current Version | Previous Version | Graphics & Text | Print | Product List | Glossary Off
Versions: 1 2 3 4 5 6 7 8 9 10 11 12 13 14 15 16 17 18 19 20 21 22 23 24 25 26 27 28 29 30 31 32 33 34 35 36 37 38 39 40 41 42 43 44 45 46 47 48 49 50

000
ASUS43 KFSD 071802
RWRFSD

WEATHER ROUNDUP FOR SE SOUTH DAKOTA/SW MINNESOTA/NW IOWA
NATIONAL WEATHER SERVICE SIOUX FALLS SD
1200 PM CST SUN FEB 07 2016

NOTE: "FAIR" INDICATES FEW OR NO CLOUDS BELOW 12,000 FEET WITH NO
SIGNIFICANT WEATHER AND OR OBSTRUCTIONS TO VISIBILITY.


SDZ038>040-050-052>070-071900-
SOUTHEAST SOUTH DAKOTA

CITY           SKY/WX    TMP DP  RH WIND       PRES   REMARKS
BROOKINGS      FLURRIES  33  29  85 NW26G33   29.76F WCI  20
CHAMBERLAIN    NOT AVBL
HURON          LGT SNOW  33  29  85 NW31G38   29.86S FOG     WCI  19
6HR MIN TEMP:  33; 6HR MAX TEMP:  37; 6HR PCP: TRACE;

MADISON        LGT SNOW  32  32 100 NW29      29.81F WCI  18
MITCHELL       LGT SNOW  35  30  82 W31G40    29.91F WCI  22
6HR MIN TEMP:  35; 6HR MAX TEMP:  39; 6HR PCP: TRACE;

SIOUX FALLS    PTSUNNY   36  27  69 NW29G40   29.84R
6HR MIN TEMP:  34; 6HR MAX TEMP:  38;

WINNER         CLOUDY    36  23  59 NW31G47   30.03R
YANKTON        MOSUNNY  N/A N/A N/A W31G41    29.92S
$$

MNZ071-072-080-081-089-090-097-098-071900-
SOUTHWEST MINNESOTA

CITY           SKY/WX    TMP DP  RH WIND       PRES   REMARKS
FAIRMONT       MOSUNNY   37  25  60 W21G29    29.75F
JACKSON        SUNNY     37  27  65 W24G32    29.77F
LUVERNE        SUNNY     37  28  70 NW20G31   29.82S
MARSHALL       CLOUDY    36  28  73 W29G36    29.72F
6HR MIN TEMP:  35; 6HR MAX TEMP:  37;

MONTEVIDEO     CLOUDY    39  28  65 NW14G20   29.72S
PIPESTONE      MOSUNNY   37  23  56 NW25G39   29.78S HAZE
REDWOOD FALLS  MOSUNNY   40  28  62 W25G35    29.71S
TRACY          CLOUDY    38  28  68 W17G25    29.75S
WINDOM         SUNNY     37  28  70 W21       29.75S
WORTHINGTON    MOSUNNY   36  25  64 W25G32    29.79S
$$

IAZ001>003-012>014-020>022-031-032-NEZ013-014-SDZ071-071900-
NORTHWEST IOWA

CITY           SKY/WX    TMP DP  RH WIND       PRES   REMARKS
ESTHERVILLE    SUNNY     37  28  70 W26       29.78F
SIOUX CITY     MOSUNNY   42  26  53 W17       29.91F
6HR MIN TEMP:  37; 6HR MAX TEMP:  42;

SPENCER        SUNNY     37  27  67 W23       29.82F
6HR MIN TEMP:  31; 6HR MAX TEMP:  37;

STORM LAKE     MOSUNNY   37  32  81 W25       29.86F
$$

ABBREVIATIONS USED IN REMARKS
   TC - TEMPERATURE IN CELSIUS
  WCI - WIND CHILL INDEX
   HX - HEAT INDEX
  VSB - VISIBILITY





USA.gov is the U.S. government's official web portal to all federal, state and local government web resources and services.